Satellite-Ground Cal/Val Region Overpasses Predictions

Prediction of Satellite NPP Overpassing Cal/Val Region: PacNW

Region Location: (Latitude: 10.00, Longitude: 139.50) to (Latitude: 22.70, Longitude: 165.60).

Table of predicted overpasses for the next 14.0 days since TLE Epoch: 7/8/2023
Interval Starting Time Starting Location Ending Time Ending Location
1 07/08/2023 02:16:13 ( 13.02, 165.60) 07/08/2023 02:18:57 ( 22.65, 163.29)
2 07/08/2023 03:56:52 ( 10.03, 140.91) 07/08/2023 03:58:35 ( 16.08, 139.51)
3 07/08/2023 14:47:16 ( 22.65, 163.49) 07/08/2023 14:50:51 ( 10.03, 160.50)
4 07/09/2023 03:37:51 ( 10.03, 145.66) 07/09/2023 03:41:26 ( 22.66, 142.66)
5 07/09/2023 14:31:24 ( 11.55, 165.60) 07/09/2023 14:31:50 ( 10.02, 165.25)
6 07/09/2023 16:09:44 ( 22.70, 142.89) 07/09/2023 16:13:20 ( 10.02, 139.87)
7 07/10/2023 03:18:49 ( 10.04, 150.41) 07/10/2023 03:22:24 ( 22.66, 147.42)
8 07/10/2023 15:50:42 ( 22.69, 147.64) 07/10/2023 15:54:18 ( 10.01, 144.63)
9 07/11/2023 02:59:48 ( 10.05, 155.16) 07/11/2023 03:03:23 ( 22.67, 152.17)
10 07/11/2023 15:31:41 ( 22.68, 152.39) 07/11/2023 15:35:17 ( 10.00, 149.38)
11 07/12/2023 02:40:46 ( 10.06, 159.92) 07/12/2023 02:44:21 ( 22.68, 156.92)
12 07/12/2023 15:12:39 ( 22.67, 157.14) 07/12/2023 15:16:14 ( 10.05, 154.14)
13 07/13/2023 02:21:44 ( 10.01, 164.68) 07/13/2023 02:25:20 ( 22.69, 161.67)
14 07/13/2023 14:53:38 ( 22.66, 161.89) 07/13/2023 14:57:13 ( 10.04, 158.90)
15 07/14/2023 03:44:12 ( 10.02, 144.06) 07/14/2023 03:47:47 ( 22.65, 141.06)
16 07/14/2023 14:35:49 ( 18.37, 165.59) 07/14/2023 14:38:11 ( 10.03, 163.65)
17 07/14/2023 16:16:06 ( 22.65, 141.27) 07/14/2023 16:18:10 ( 15.37, 139.51)
18 07/15/2023 03:25:11 ( 10.03, 148.81) 07/15/2023 03:28:46 ( 22.66, 145.81)
19 07/15/2023 15:57:04 ( 22.69, 146.03) 07/15/2023 16:00:40 ( 10.01, 143.02)
20 07/16/2023 03:06:10 ( 10.05, 153.56) 07/16/2023 03:09:45 ( 22.67, 150.56)
21 07/16/2023 15:38:02 ( 22.68, 150.78) 07/16/2023 15:41:37 ( 10.06, 147.79)
22 07/17/2023 02:47:07 ( 10.00, 158.32) 07/17/2023 02:50:43 ( 22.68, 155.31)
23 07/17/2023 15:19:01 ( 22.66, 155.53) 07/17/2023 15:22:36 ( 10.04, 152.54)
24 07/18/2023 02:28:06 ( 10.02, 163.08) 07/18/2023 02:31:42 ( 22.70, 160.06)
25 07/18/2023 14:59:59 ( 22.65, 160.29) 07/18/2023 15:03:34 ( 10.03, 157.29)
26 07/19/2023 02:11:46 ( 19.55, 165.60) 07/19/2023 02:12:39 ( 22.66, 164.83)
27 07/19/2023 03:50:34 ( 10.04, 142.45) 07/19/2023 03:54:05 ( 22.43, 139.51)
28 07/19/2023 14:40:57 ( 22.69, 165.05) 07/19/2023 14:44:33 ( 10.01, 162.04)
29 07/19/2023 16:22:27 ( 22.68, 139.67) 07/19/2023 16:22:38 ( 22.04, 139.51)
30 07/20/2023 03:31:33 ( 10.06, 147.20) 07/20/2023 03:35:08 ( 22.68, 144.20)
31 07/20/2023 16:03:25 ( 22.67, 144.42) 07/20/2023 16:07:00 ( 10.04, 141.43)
32 07/21/2023 03:12:30 ( 10.02, 151.96) 07/21/2023 03:16:06 ( 22.70, 148.95)
